Bookmark and Share
Track history (hours):
 

Gil Vicente

Last reported at 2014-Apr-16 08:34 UTC. Time now 2014-Apr-19 14:29 UTC.
Position N 38°40' W 009°07'.

Length 49 m.

Type: Passenger vessel. MMSI: 263701390.

NotesDate/timePositionNaut miles runAvg speedWind from/ knotsBaromVisibWave heightAir tempDewpointWater temp
2014-Apr-16 08:34N 38°40' W 009°07'0 0.3
2014-Apr-16 07:33N 38°40' W 009°07'2 1.9
2014-Apr-16 06:33N 38°39' W 009°05'0 0.0
2014-Apr-16 05:34N 38°39' W 009°05'0 0.0
2014-Apr-16 04:33N 38°39' W 009°05'4 0.6
2014-Apr-15 22:34N 38°42' W 009°08'1 1.0
2014-Apr-15 21:33N 38°41' W 009°08'0 0.2
2014-Apr-15 20:33N 38°41' W 009°08'3 3.0
2014-Apr-15 19:33N 38°39' W 009°05'1 0.7
2014-Apr-15 18:34N 38°39' W 009°06'1 0.7
2014-Apr-15 17:33N 38°39' W 009°05'1 0.7
2014-Apr-15 16:34N 38°39' W 009°06'1 0.6
2014-Apr-15 15:33N 38°39' W 009°05'0 0.0
2014-Apr-15 06:34N 38°39' W 009°05'0 0.3
2014-Apr-15 05:34N 38°39' W 009°05'4 0.3
2014-Apr-14 18:34N 38°42' W 009°08'0 0.4
2014-Apr-14 17:34N 38°42' W 009°08'1 0.8
2014-Apr-14 16:34N 38°42' W 009°08'3 3.3
2014-Apr-14 15:34N 38°39' W 009°05'4 3.8
2014-Apr-14 14:34N 38°42' W 009°08'1 1.5
2014-Apr-14 13:34N 38°41' W 009°08'0 0.0
2014-Apr-14 11:34N 38°41' W 009°08'0 0.1
2014-Apr-14 10:34N 38°41' W 009°08'0 0.0
2014-Apr-14 09:33N 38°41' W 009°08'3 2.7
2014-Apr-14 08:33N 38°39' W 009°05'1 1.5
2014-Apr-14 07:33N 38°40' W 009°07'3 2.8
2014-Apr-14 06:33N 38°42' W 009°08'1 0.9
2014-Apr-14 05:33N 38°42' W 009°08'  
2014-Apr-11 08:16N 38°39' W 009°05'0 0.5
2014-Apr-11 07:34N 38°39' W 009°05'0 0.4
2014-Apr-11 06:33N 38°39' W 009°05'0 0.1
2014-Apr-11 05:34N 38°39' W 009°05'0 0.0
2014-Apr-10 20:32N 38°39' W 009°05'0 0.0
2014-Apr-10 19:33N 38°39' W 009°05'4 3.6
2014-Apr-10 18:34N 38°42' W 009°08'2 1.8
2014-Apr-10 17:33N 38°40' W 009°07'2 2.2
2014-Apr-10 16:34N 38°39' W 009°05'0 0.1
2014-Apr-10 15:34N 38°39' W 009°05'0 0.1
2014-Apr-10 14:33N 38°39' W 009°05'0 0.0
2014-Apr-09 20:17N 38°39' W 009°05'3 4.6
2014-Apr-09 19:33N 38°42' W 009°08'2 2.5
2014-Apr-09 18:34N 38°39' W 009°06'3 3.0
2014-Apr-09 17:33N 38°42' W 009°08'0 0.3
2014-Apr-09 16:34N 38°42' W 009°08'1 1.0
2014-Apr-09 15:33N 38°41' W 009°08'3 3.3
2014-Apr-09 14:34N 38°39' W 009°05'1 1.5
2014-Apr-09 13:34N 38°40' W 009°06'0 0.1
2014-Apr-09 12:33N 38°40' W 009°06'1 1.4
2014-Apr-09 11:33N 38°39' W 009°05'0 0.0
2014-Apr-09 10:33N 38°39' W 009°05'3 2.7
2014-Apr-09 09:34N 38°41' W 009°08'3 2.8
2014-Apr-09 08:33N 38°39' W 009°05'1 0.6
2014-Apr-09 07:34N 38°39' W 009°05'3 3.5
2014-Apr-09 06:34N 38°42' W 009°08'1 0.5
2014-Apr-09 05:34N 38°42' W 009°08'0 0.1
2014-Apr-09 04:34N 38°42' W 009°08'4 4.0
2014-Apr-09 03:33N 38°39' W 009°05'0 0.0
2014-Apr-09 02:33N 38°39' W 009°05'0 0.0
2014-Apr-09 01:33N 38°39' W 009°05'1 0.5
2014-Apr-09 00:33N 38°39' W 009°05'0 0.3
2014-Apr-08 23:33N 38°39' W 009°05'0 0.1
2014-Apr-08 22:34N 38°39' W 009°05'1 0.8
2014-Apr-08 21:34N 38°40' W 009°06'1 0.6
2014-Apr-08 20:33N 38°40' W 009°07'2 1.7
2014-Apr-08 19:33N 38°39' W 009°05'0 0.0
2014-Apr-08 18:33N 38°39' W 009°05'1 1.1
2014-Apr-08 17:34N 38°40' W 009°06'3 2.9
2014-Apr-08 16:34N 38°42' W 009°08'4 3.9
2014-Apr-08 15:33N 38°39' W 009°05'0 0.0
2014-Apr-08 12:27N 38°39' W 009°05'2 1.9
2014-Apr-08 11:33N 38°40' W 009°07'1 0.7
2014-Apr-08 10:34N 38°40' W 009°06'1 1.0
2014-Apr-08 09:34N 38°39' W 009°05'0 0.0
2014-Apr-08 08:33N 38°39' W 009°05'0 0.0
2014-Apr-08 07:33N 38°39' W 009°05'1 0.8
2014-Apr-08 06:34N 38°39' W 009°06'1 0.7
2014-Apr-08 05:33N 38°39' W 009°05'4 0.4
2014-Apr-07 19:33N 38°42' W 009°08'1 0.6
2014-Apr-07 17:34N 38°41' W 009°08'2 2.4
2014-Apr-07 16:34N 38°39' W 009°05'4 3.7
2014-Apr-07 15:34N 38°42' W 009°08'1 1.5
2014-Apr-07 14:33N 38°41' W 009°08'0 0.1
2014-Apr-07 13:33N 38°41' W 009°08'0 0.1
2014-Apr-07 12:33N 38°41' W 009°08'0 0.2
2014-Apr-07 11:34N 38°41' W 009°08'0 0.0
2014-Apr-07 10:34N 38°41' W 009°08'3 2.7
2014-Apr-07 09:33N 38°39' W 009°05'2 1.7
2014-Apr-07 08:33N 38°40' W 009°07'3 2.7
2014-Apr-07 07:33N 38°42' W 009°08'1 1.4
2014-Apr-07 06:33N 38°41' W 009°08'3 2.8
2014-Apr-07 05:33N 38°39' W 009°05'  

Dump ship's entire track history

sailing weather and tide predictions

Gil Vicente — CSKG — position and weather